PROFILE

 METAR AND TAF INFORMATION
ADDS - METARS form results

(2307 UTC 26 May 2019)
http://aviationweather.gov/metar/data/
 
LFMN 262300Z 34004KT 310V020 9999 BKN100 19/13 Q1009 NOSIG
LFMN 262230Z 34006KT 320V030 9999 BKN100 19/14 Q1009 NOSIG
TAF LFMN 262000Z 2621/2803 32010KT 9999 BKN080 BECMG 2709/2711 17007KT TEMPO 2716/2721 23015KT BECMG 2721/2723 VRB04KT 

 AIRPORT MAP

 RUNWAY INFORMATION
Runway 04L Runway length 8995 ft Runway width 148 ft
Runway elevation 10 ft Runway displaced threshold 0 ft Runway heading 45
Runway 22R Runway length 8995 ft Runway width 148 ft
Runway elevation 10 ft Runway displaced threshold 575 ft Runway heading 225
Runway 04R Runway length 9712 ft Runway width 148 ft
Runway elevation 10 ft Runway displaced threshold 0 ft Runway heading 45
Runway 22L Runway length 9712 ft Runway width 148 ft
Runway elevation 12 ft Runway displaced threshold 0 ft Runway heading 225

 AIRPORT FREQUENCIES
Type A/D Name NICE APP Frequency 124.175 MHZ
Type ATIS Name NICE ATIS Frequency 129.6 MHZ
Type GND Name NICE GND Frequency 121.775 MHZ
Type TWR Name NICE TWR Frequency 118.7 MHZ

 AIRPORT NEAR NAVIGATION AIDS
Type VOR-DME Name Nice Cote D Azur Frequency 109650 KHZ
Type VOR-DME Name Cagnes Sur Mer Frequency 109200 KHZ
Type NDB Name Nice Frequency 399 KHZ
Type VOR-DME Name Nice Frequency 112400 KHZ